Location: Bamobli
(6.6379°N, 10.9396°W)
Time: 15:14:10
(UTC+00:00)

Cosmos 1844 - Pass Details

Date: 07 June 2020
Orbit: 821 x 869 km, 70.9° (Epoch: 05 July)

Event Time Altitude Azimuth Distance (km) Brightness Sun altitude
Rises 04:54:20 0° 347° (NNW) 3,436 7.1 -21.9°
Reaches altitude 10° 04:56:48 10° 348° (NNW) 2,496 6.3 -21.3°
Maximum altitude 05:02:32 78° 74° (ENE) 878 3.8 -20.0°
Drops below altitude 10° 05:08:14 10° 160° (SSE) 2,473 6.1 -18.8°
Sets 05:10:40 0° 162° (SSE) 3,402 6.8 -18.2°
